Location: Biltmore Gardens
(41.6070°N, 83.4666°W)
Time: 05:03:29
(UTC+00:00)

A-11 Canister half - Pass Details

Date: 24 April 2021
Orbit: 1526 x 1683 km, 47.3° (Epoch: 11 May)

Event Time Altitude Azimuth Distance (km) Brightness Sun altitude
Rises 04:31:34 0° 288° (WNW) 4,934 12.1 -33.7°
Reaches altitude 10° 04:36:58 10° 265° (W) 3,926 11.2 -34.0°
Enters shadow 04:41:19 14° 239° (WSW) 3,610 10.8 -34.2°
